Terminal Aerodrome Forecast
Issued by NWS Melbourne, FL

Home | Current Version | Previous Version | Text Only | Print | Product List | Glossary On
Versions: 1 2 3 4 5 6 7 8 9 10 11 12 13 14 15 16
000
FTUS42 KMLB 241133
TAFMLB
TAF
KMLB 241133Z 2412/2512 08013KT P6SM VCSH SCT015 SCT020 SCT030
      TEMPO 2412/2415 SHRA BKN020 BKN025
     FM241700 11016G23KT P6SM FEW030
     FM250000 09016KT P6SM SCT020=

USA.gov is the U.S. government's official web portal to all federal, state and local government web resources and services.